Weather home | Your neighborhood | Marine | Radar | Hurricane | Almanac

Daily weather history


Statistical History for Sunday, August 13, 2017

St. Petersburg Airport, FL


  Actual Average Record
Temperature
Mean Temperature -  
Max Temperature 89 °F 96 °F (1954)
Min Temperature 76 °F 72 °F (1949)
Cooling Degree Days    
Growing Degree Days 36 (Base - )  
Moisture
Dew Point   
Average Humidity    
Maximum Humidity    
Minimum Humidity    
Precipitation
Precipitation - - ()
Wind
Wind Speed   
Max Wind Speed   
Max Gust Speed   
Visibility   
Events   
Averages and records for this station are not official NWS values.
Key: T is trace of precipitation, MM is missing value
Source: NWS Daily Summary
Seasonal Weather Averages
Time(EDT)TemperatureDew PointHumidity Sea Level Pressure Visibility Wind DirectionWind SpeedGust SpeedPrecipitationEventsConditions
12:53 AM 84.0 °F 75.9 °F 76% 29.99 in 10.0 miles Calm Calm - N/A   Scattered Clouds
1:53 AM 82.9 °F 75.9 °F 79% 29.97 in 10.0 miles Calm Calm - N/A   Clear
2:53 AM 82.9 °F 75.9 °F 79% 29.96 in 10.0 miles Calm Calm - N/A   Mostly Cloudy
3:53 AM 82.0 °F 77.0 °F 85% 29.95 in 10.0 miles SSE 8.1 mph - N/A   Clear
4:53 AM 81.0 °F 77.0 °F 88% 29.96 in 10.0 miles SSE 8.1 mph - N/A   Partly Cloudy
5:53 AM 81.0 °F 77.0 °F 88% 29.96 in 10.0 miles South 3.5 mph - N/A   Clear
6:53 AM 81.0 °F 77.0 °F 88% 29.97 in 10.0 miles South 3.5 mph - N/A   Scattered Clouds
7:53 AM 82.9 °F 78.1 °F 85% 29.99 in 10.0 miles SSE 4.6 mph - N/A   Clear
8:53 AM 86.0 °F 79.0 °F 79% 30.00 in 10.0 miles SSE 6.9 mph - N/A   Scattered Clouds
9:11 AM 86.0 °F 75.9 °F 72% 30.00 in 10.0 miles South 12.7 mph - N/A Thunderstorm Partly Cloudy
9:28 AM 82.9 °F 73.9 °F 74% 30.01 in 10.0 miles South 9.2 mph - N/A   Scattered Clouds
9:53 AM 84.0 °F 75.0 °F 74% 30.00 in 10.0 miles South 5.8 mph - N/A   Scattered Clouds
10:53 AM 89.1 °F 75.0 °F 63% 30.01 in 10.0 miles SW 9.2 mph - N/A   Scattered Clouds
11:43 AM 84.0 °F 75.9 °F 76% 30.02 in 0.8 miles WNW 12.7 mph - 0.12 in Rain Heavy Rain
11:53 AM 84.0 °F 75.9 °F 76% 30.01 in 1.0 miles NW 3.5 mph 17.3 mph 0.19 in Rain Heavy Rain
11:55 AM 84.0 °F 77.0 °F 79% 30.01 in 10.0 miles Calm Calm - 0.01 in Rain Rain
12:02 PM 86.0 °F 75.9 °F 72% 30.01 in 10.0 miles WSW 3.5 mph - 0.01 in   Overcast
12:53 PM 89.1 °F 73.9 °F 61% 30.00 in 10.0 miles SW 9.2 mph - 0.01 in   Scattered Clouds
1:53 PM 89.1 °F 73.9 °F 61% 30.00 in 10.0 miles WSW 10.4 mph - N/A   Mostly Cloudy
2:53 PM 89.1 °F 73.9 °F 61% 29.99 in 10.0 miles West 8.1 mph - N/A   Scattered Clouds
3:53 PM 89.1 °F 73.9 °F 61% 29.98 in 10.0 miles West 8.1 mph - N/A   Scattered Clouds
4:53 PM 90.0 °F 73.9 °F 59% 29.96 in 10.0 miles West 9.2 mph - N/A   Partly Cloudy
5:53 PM 88.0 °F 73.0 °F 61% 29.97 in 10.0 miles West 9.2 mph - N/A   Scattered Clouds
6:53 PM 87.1 °F 73.9 °F 65% 29.96 in 10.0 miles West 9.2 mph - N/A   Clear
7:53 PM 86.0 °F 73.9 °F 67% 29.97 in 10.0 miles WSW 5.8 mph - N/A   Clear
8:53 PM 84.9 °F 73.9 °F 69% 29.98 in 10.0 miles WSW 5.8 mph - N/A   Clear
9:53 PM 84.0 °F 75.0 °F 74% 30.01 in 10.0 miles SSW 4.6 mph - N/A   Clear
10:53 PM 82.0 °F 75.9 °F 82% 30.01 in 10.0 miles Calm Calm - N/A   Clear
11:53 PM 82.0 °F 77.0 °F 85% 30.01 in 10.0 miles Calm Calm - N/A   Clear
ADVERTISEMENT
Enter city or zip code to search weather conditions:


  • 490 First Avenue South
  • St. Petersburg, FL 33701
  • 727-893-8111